Location: Unspecified
(0.0000°N, 0.0000°E)
Time: 01:21:46
(UTC+00:00)

Vanguard 3 - Pass Details

Date: 17 December 2017
Orbit: 508 x 3264 km, 33.3° (Epoch: 21 July)

Event Time Altitude Azimuth Distance (km) Brightness Sun altitude
Rises 23:13:36 0° 245° (WSW) 5,387 11.6 -64.4°
Reaches altitude 10° 23:18:39 10° 227° (SW) 4,884 11.3 -64.9°
Maximum altitude 23:27:52 18° 189° (S) 4,902 11.2 -65.6°
Drops below altitude 10° 23:39:16 10° 151° (SSE) 6,109 11.7 -66.2°
Sets 23:47:09 0° 134° (SE) 7,235 12.2 -66.5°
